ANZ80 VHHH-NZAA

Flight info

Callsign ANZ80
Flight time N/A
Altitude 33000
Route DALOL DCT NOMAN A461 AVMUP W16 MIA B462 TAC R337 ISGOG DCT 08N135E 05N140E 02N145E/N0500F350 0000N14730E 02S150E DCT KVG DCT 05S153E 0731S15500E 10S157E 1400S16059E 1430S16129E/N0493F370 15S162E 20S165E DCT VIRAR A597 LEKAX DCT 30S171E DCT DUGAN
Aircraft B77W/H-SDE1E2E3FGHIJ2J3J4J5M1RWXY/LB1D1

Departure

Time 2026-05-04 09:25
Airport Hong Kong International Airport (VHHH)

Arrival

Time N/A
Airport Auckland International Airport (NZAA)
Time Latitude Longitude Altitude Speed Heading
2026-05-04 08:50 22.30855 113.90278 35 ft 0 kts 339°
2026-05-04 09:10 22.30854 113.90279 62 ft 2 kts 339°
2026-05-04 09:10 22.30837 113.90286 33 ft 3 kts 324°
2026-05-04 09:10 22.30824 113.90301 34 ft 3 kts 288°
2026-05-04 09:10 22.30821 113.90321 34 ft 3 kts 252°
2026-05-04 09:11 22.30823 113.90326 34 ft 0 kts 249°
2026-05-04 09:17 22.30821 113.90321 34 ft 0 kts 249°
2026-05-04 09:18 22.30820 113.90318 34 ft 4 kts 247°
2026-05-04 09:19 22.30787 113.90264 34 ft 9 kts 224°
2026-05-04 09:19 22.30741 113.90198 35 ft 17 kts 247°
2026-05-04 09:19 22.30807 113.90064 35 ft 28 kts 338°
2026-05-04 09:19 22.30938 113.90174 35 ft 29 kts 71°
2026-05-04 09:20 22.31015 113.90417 35 ft 35 kts 71°
2026-05-04 09:20 22.31090 113.90652 35 ft 32 kts 76°
2026-05-04 09:20 22.30950 113.90780 35 ft 30 kts 164°
2026-05-04 09:20 22.30752 113.90852 35 ft 30 kts 161°
2026-05-04 09:21 22.30582 113.90816 35 ft 30 kts 259°
2026-05-04 09:21 22.30458 113.90650 35 ft 30 kts 215°
2026-05-04 09:21 22.30290 113.90548 35 ft 30 kts 243°
2026-05-04 09:21 22.30257 113.90331 35 ft 30 kts 272°
2026-05-04 09:22 22.30199 113.90115 35 ft 30 kts 246°
2026-05-04 09:22 22.30144 113.89963 35 ft 2 kts 232°
2026-05-04 09:22 22.30050 113.89938 35 ft 27 kts 166°
2026-05-04 09:22 22.29895 113.89855 35 ft 15 kts 221°
2026-05-04 09:23 22.29771 113.89868 35 ft 19 kts 154°
2026-05-04 09:23 22.29731 113.89887 35 ft 0 kts 153°
2026-05-04 09:23 22.29710 113.89900 35 ft 16 kts 146°
2026-05-04 09:23 22.29695 113.90026 34 ft 12 kts 75°
2026-05-04 09:25 22.31622 113.96059 676 ft 207 kts 70°
2026-05-04 09:25 22.32099 113.97541 981 ft 211 kts 71°
2026-05-04 09:26 22.32585 113.99035 1405 ft 214 kts 71°
2026-05-04 09:26 22.33083 114.00572 1952 ft 216 kts 71°
2026-05-04 09:26 22.33579 114.02109 2518 ft 218 kts 74°
2026-05-04 09:26 22.33814 114.03738 2966 ft 221 kts 94°
2026-05-04 09:27 22.33569 114.05396 3382 ft 229 kts 113°
2026-05-04 09:27 22.32716 114.06855 3846 ft 233 kts 135°
2026-05-04 09:27 22.31438 114.07954 4377 ft 238 kts 154°
2026-05-04 09:27 22.29856 114.08451 4927 ft 238 kts 178°
2026-05-04 09:28 22.28227 114.08461 5431 ft 240 kts 183°
2026-05-04 09:28 22.26541 114.08472 5912 ft 246 kts 182°
2026-05-04 09:28 22.24823 114.08495 6433 ft 251 kts 182°
2026-05-04 09:28 22.23056 114.08518 6967 ft 253 kts 183°
2026-05-04 09:29 22.21294 114.08541 7553 ft 253 kts 184°
2026-05-04 09:29 22.19551 114.08563 8131 ft 253 kts 184°
2026-05-04 09:29 22.17782 114.08586 8655 ft 256 kts 184°
2026-05-04 09:29 22.15981 114.08606 9158 ft 260 kts 185°
2026-05-04 09:30 22.14221 114.08528 9670 ft 261 kts 188°
2026-05-04 09:30 22.12392 114.08386 10209 ft 262 kts 189°
2026-05-04 09:30 22.10574 114.08237 10726 ft 263 kts 189°
2026-05-04 09:30 22.08759 114.08090 11234 ft 264 kts 190°
2026-05-04 09:31 22.06914 114.07943 11734 ft 266 kts 190°
2026-05-04 09:31 22.05053 114.07798 12227 ft 269 kts 190°
2026-05-04 09:31 22.03167 114.07653 12706 ft 272 kts 191°
2026-05-04 09:31 22.01287 114.07510 13216 ft 275 kts 191°
2026-05-04 09:32 21.99362 114.07365 13702 ft 277 kts 191°
2026-05-04 09:32 21.97429 114.07220 14182 ft 280 kts 191°
2026-05-04 09:34 21.83256 114.06170 17376 ft 303 kts 190°
2026-05-04 09:34 21.81146 114.06013 17841 ft 307 kts 190°
2026-05-04 09:34 21.78996 114.05853 18296 ft 310 kts 190°
2026-05-04 09:34 21.76815 114.05695 18686 ft 314 kts 190°
2026-05-04 09:35 21.74614 114.05548 19102 ft 317 kts 189°
2026-05-04 09:35 21.72402 114.05401 19543 ft 319 kts 189°
2026-05-04 09:35 21.70175 114.05253 19974 ft 322 kts 189°
2026-05-04 09:35 21.67942 114.05102 20331 ft 329 kts 189°
2026-05-04 09:37 21.50833 114.03954 23024 ft 366 kts 189°
2026-05-04 09:37 21.48268 114.03789 23463 ft 369 kts 186°
2026-05-04 09:38 21.45705 114.04153 23698 ft 386 kts 165°
2026-05-04 09:38 21.43303 114.05585 23994 ft 402 kts 144°
2026-05-04 09:38 21.41428 114.07824 24350 ft 413 kts 125°
2026-05-04 09:38 21.39970 114.10499 24682 ft 417 kts 123°
2026-05-04 09:39 21.38533 114.13247 25043 ft 421 kts 123°
2026-05-04 09:39 21.37102 114.16007 25419 ft 424 kts 123°
2026-05-04 09:39 21.35664 114.18776 25805 ft 426 kts 123°
2026-05-04 09:39 21.34199 114.21573 26178 ft 429 kts 123°
2026-05-04 09:40 21.32728 114.24360 26549 ft 432 kts 123°
2026-05-04 09:40 21.31262 114.27121 26912 ft 434 kts 123°
2026-05-04 09:40 21.29803 114.29855 27260 ft 437 kts 124°
2026-05-04 09:40 21.28332 114.32606 27585 ft 440 kts 124°
2026-05-04 09:41 21.27425 114.34299 27809 ft 442 kts 124°
2026-05-04 09:42 21.16826 114.54039 30120 ft 459 kts 123°
2026-05-04 09:43 21.15224 114.57017 30364 ft 462 kts 123°
2026-05-04 09:43 21.13624 114.59991 30618 ft 465 kts 123°
2026-05-04 09:43 21.12027 114.62957 30867 ft 467 kts 124°
2026-05-04 09:43 21.10395 114.65986 31105 ft 470 kts 124°
2026-05-04 09:44 21.08766 114.69008 31339 ft 473 kts 124°
2026-05-04 09:44 21.07111 114.72076 31571 ft 475 kts 124°
2026-05-04 09:44 21.05446 114.75162 31773 ft 478 kts 124°
2026-05-04 09:46 20.93550 114.97153 32937 ft 501 kts 124°
2026-05-04 09:46 20.90053 115.03601 32975 ft 503 kts 123°
2026-05-04 09:47 20.86555 115.10053 32979 ft 498 kts 123°
2026-05-04 09:49 20.72636 115.35619 32989 ft 495 kts 123°
2026-05-04 09:51 20.60425 115.57949 32986 ft 498 kts 123°
2026-05-04 09:51 20.56928 115.64329 32985 ft 497 kts 123°
2026-05-04 09:52 20.53432 115.70701 32980 ft 496 kts 123°
2026-05-04 09:52 20.49971 115.77001 32982 ft 495 kts 123°
2026-05-04 09:53 20.46468 115.83369 32981 ft 494 kts 123°
2026-05-04 09:53 20.43005 115.89658 32978 ft 494 kts 123°
2026-05-04 09:54 20.39527 115.95967 32980 ft 495 kts 123°
2026-05-04 09:54 20.36042 116.02282 32970 ft 495 kts 123°
2026-05-04 09:55 20.32542 116.08617 32981 ft 495 kts 123°
2026-05-04 09:55 20.29069 116.14897 32980 ft 494 kts 123°
2026-05-04 09:56 20.25572 116.21215 32977 ft 493 kts 123°
2026-05-04 09:56 20.22083 116.27509 32976 ft 492 kts 124°
2026-05-04 09:57 20.18619 116.33752 32976 ft 491 kts 124°
2026-05-04 09:57 20.15126 116.40040 32978 ft 491 kts 124°
2026-05-04 09:58 20.11639 116.46311 32985 ft 492 kts 124°
2026-05-04 09:58 20.08160 116.52561 32984 ft 493 kts 124°
2026-05-04 10:00 19.94740 116.73434 32983 ft 483 kts 136°
2026-05-04 10:00 19.92439 116.76055 32977 ft 483 kts 136°
2026-05-04 10:04 19.60738 117.12654 32969 ft 479 kts 136°
2026-05-04 10:04 19.56191 117.17895 32969 ft 481 kts 135°
2026-05-04 10:05 19.51650 117.23124 32977 ft 486 kts 135°
2026-05-04 10:05 19.47053 117.28416 32970 ft 486 kts 135°
2026-05-04 10:06 19.42485 117.33670 32972 ft 486 kts 135°
2026-05-04 10:06 19.37898 117.38940 32969 ft 485 kts 135°
2026-05-04 10:08 19.21863 117.57324 32961 ft 488 kts 136°
2026-05-04 10:08 19.17262 117.62590 32965 ft 488 kts 136°
2026-05-04 10:09 19.12652 117.67861 32958 ft 488 kts 136°
2026-05-04 10:09 19.08052 117.73117 32956 ft 487 kts 136°
2026-05-04 10:10 19.03435 117.78388 32957 ft 487 kts 136°
2026-05-04 10:10 18.98851 117.83609 32953 ft 486 kts 136°
2026-05-04 10:11 18.94262 117.88826 32953 ft 485 kts 136°
2026-05-04 10:11 18.89662 117.94054 32956 ft 485 kts 136°
2026-05-04 10:12 18.85077 117.99261 32948 ft 486 kts 136°
2026-05-04 10:12 18.80446 118.04517 32956 ft 486 kts 136°
2026-05-04 10:13 18.75859 118.09719 32942 ft 487 kts 136°
2026-05-04 10:13 18.71231 118.14963 32952 ft 486 kts 136°
2026-05-04 10:14 18.66636 118.20165 32943 ft 486 kts 136°
2026-05-04 10:16 18.48203 118.40988 32943 ft 485 kts 136°
2026-05-04 10:16 18.43623 118.46151 32940 ft 483 kts 136°
2026-05-04 10:17 18.39012 118.51344 32932 ft 482 kts 136°
2026-05-04 10:19 18.20799 118.71815 32932 ft 482 kts 136°
2026-05-04 10:19 18.16201 118.76973 32930 ft 482 kts 136°
2026-05-04 10:20 18.11628 118.82100 32930 ft 482 kts 136°
2026-05-04 10:20 18.07039 118.87240 32927 ft 480 kts 135°
2026-05-04 10:21 18.02461 118.92360 32920 ft 479 kts 136°
2026-05-04 10:21 17.97451 118.96853 32923 ft 473 kts 148°
2026-05-04 10:22 17.88938 119.01973 32927 ft 471 kts 154°
2026-05-04 10:23 17.83153 119.05274 32927 ft 472 kts 154°
2026-05-04 10:25 17.61106 119.18010 32926 ft 472 kts 154°
2026-05-04 10:25 17.55391 119.21310 32921 ft 472 kts 154°
2026-05-04 10:26 17.49636 119.24631 32922 ft 471 kts 154°
2026-05-04 10:26 17.43872 119.27955 32920 ft 473 kts 154°
2026-05-04 10:27 17.38101 119.31278 32926 ft 476 kts 154°
2026-05-04 10:27 17.32264 119.34640 32930 ft 478 kts 154°
2026-05-04 10:28 17.26449 119.37986 32920 ft 479 kts 154°
2026-05-04 10:28 17.20599 119.41350 32912 ft 479 kts 154°
2026-05-04 10:29 17.14790 119.44688 32916 ft 477 kts 154°
2026-05-04 10:29 17.08975 119.48027 32908 ft 475 kts 154°
2026-05-04 10:30 17.03206 119.51337 32911 ft 474 kts 154°
2026-05-04 10:30 16.97436 119.54644 32921 ft 476 kts 154°
2026-05-04 10:31 16.91593 119.57991 32934 ft 479 kts 154°
2026-05-04 10:32 16.71089 119.69720 32905 ft 479 kts 153°
2026-05-04 10:33 16.65276 119.73040 32899 ft 477 kts 153°
2026-05-04 10:33 16.59453 119.76363 32905 ft 474 kts 153°
2026-05-04 10:34 16.53685 119.79652 32922 ft 475 kts 153°
2026-05-04 10:34 16.47858 119.82972 32901 ft 476 kts 153°
2026-05-04 10:35 16.42070 119.86268 32902 ft 476 kts 153°
2026-05-04 10:35 16.36242 119.89585 32900 ft 476 kts 153°
2026-05-04 10:36 16.30426 119.92893 32905 ft 476 kts 153°
2026-05-04 10:36 16.24605 119.96202 32904 ft 476 kts 153°
2026-05-04 10:37 16.18809 119.99494 32916 ft 476 kts 153°
2026-05-04 10:37 16.12982 120.02801 32916 ft 475 kts 153°
2026-05-04 10:39 15.92722 120.14283 32905 ft 474 kts 153°
2026-05-04 10:40 15.86912 120.17571 32912 ft 474 kts 153°
2026-05-04 10:40 15.81139 120.20835 32907 ft 475 kts 153°
2026-05-04 10:41 15.75317 120.24127 32917 ft 476 kts 153°
2026-05-04 10:41 15.69478 120.27425 32900 ft 476 kts 153°
2026-05-04 10:42 15.63688 120.30696 32909 ft 475 kts 153°
2026-05-04 10:42 15.57922 120.33956 32905 ft 473 kts 153°
2026-05-04 10:43 15.52151 120.37218 32911 ft 471 kts 153°
2026-05-04 10:45 15.29174 120.50195 32925 ft 469 kts 153°
2026-05-04 10:45 15.23457 120.53418 32913 ft 470 kts 153°
2026-05-04 10:46 15.17723 120.56714 32906 ft 470 kts 149°
2026-05-04 10:46 15.12265 120.60409 32915 ft 470 kts 148°
2026-05-04 10:47 15.06824 120.64131 32920 ft 470 kts 148°
2026-05-04 10:47 15.01339 120.67848 32897 ft 470 kts 148°
2026-05-04 10:49 14.79574 120.82699 32886 ft 468 kts 148°
2026-05-04 10:50 14.74161 120.86404 32885 ft 468 kts 148°
2026-05-04 10:52 14.52407 121.01247 32878 ft 468 kts 142°
2026-05-04 10:52 14.47692 121.05887 32880 ft 468 kts 130°
2026-05-04 10:54 14.31055 121.26557 32906 ft 468 kts 130°
2026-05-04 10:56 14.14505 121.47025 32928 ft 464 kts 131°
2026-05-04 10:57 14.10371 121.52110 32935 ft 465 kts 131°
2026-05-04 10:57 14.06215 121.57216 32939 ft 463 kts 131°
2026-05-04 10:58 14.02104 121.62267 32937 ft 459 kts 130°
2026-05-04 10:58 13.98000 121.67309 32924 ft 456 kts 131°
2026-05-04 10:59 13.93937 121.72297 32939 ft 455 kts 131°
2026-05-04 10:59 13.89878 121.77278 32942 ft 457 kts 130°
2026-05-04 11:00 13.85775 121.82309 32930 ft 457 kts 131°
2026-05-04 11:02 13.69464 122.02295 32928 ft 455 kts 131°
2026-05-04 11:05 13.38951 122.39568 32924 ft 455 kts 130°
2026-05-04 11:06 13.34857 122.44557 32924 ft 456 kts 130°
2026-05-04 11:06 13.30789 122.49512 32924 ft 456 kts 130°
2026-05-04 11:10 13.03029 122.83244 32926 ft 452 kts 130°
2026-05-04 11:12 12.86794 123.02913 32918 ft 451 kts 130°
2026-05-04 11:12 12.82769 123.07783 32919 ft 450 kts 130°
2026-05-04 11:13 12.78706 123.12695 32921 ft 449 kts 131°
2026-05-04 11:13 12.74684 123.17556 32926 ft 449 kts 131°
2026-05-04 11:14 12.70651 123.22428 32926 ft 450 kts 131°
2026-05-04 11:16 12.54482 123.41933 32919 ft 448 kts 131°
2026-05-04 11:16 12.50449 123.46791 32929 ft 447 kts 131°
2026-05-04 11:17 12.46408 123.51656 32927 ft 447 kts 131°
2026-05-04 11:19 12.30394 123.71093 32922 ft 448 kts 130°
2026-05-04 11:19 12.26431 123.75995 32921 ft 448 kts 130°
2026-05-04 11:20 12.22460 123.80893 32922 ft 447 kts 130°
2026-05-04 11:20 12.18465 123.85813 32916 ft 447 kts 130°
2026-05-04 11:22 12.02628 124.05289 32904 ft 445 kts 130°
2026-05-04 11:23 11.98659 124.10162 32923 ft 447 kts 130°
2026-05-04 11:25 11.84634 124.27373 32904 ft 450 kts 130°
2026-05-04 11:25 11.80641 124.32279 32902 ft 447 kts 130°
2026-05-04 11:27 11.62817 124.54165 32906 ft 450 kts 130°
2026-05-04 11:28 11.58802 124.59089 32908 ft 449 kts 130°
2026-05-04 11:28 11.54819 124.63971 32904 ft 448 kts 130°
2026-05-04 11:29 11.50851 124.68833 32912 ft 445 kts 130°
2026-05-04 11:29 11.46889 124.73679 32914 ft 444 kts 130°
2026-05-04 11:33 11.20685 125.08816 32926 ft 445 kts 111°
2026-05-04 11:33 11.18429 125.14722 32937 ft 446 kts 111°
2026-05-04 11:34 11.16171 125.20587 32921 ft 447 kts 111°
2026-05-04 11:34 11.13868 125.26494 32932 ft 448 kts 111°
2026-05-04 11:35 11.11572 125.32360 32929 ft 447 kts 111°
2026-05-04 11:35 11.09264 125.38258 32926 ft 447 kts 111°
2026-05-04 11:36 11.06976 125.44099 32933 ft 445 kts 111°
2026-05-04 11:36 11.04682 125.49955 32929 ft 444 kts 111°
2026-05-04 11:37 11.02386 125.55814 32929 ft 443 kts 111°
2026-05-04 11:37 11.00111 125.61616 32931 ft 443 kts 111°
2026-05-04 11:38 10.97838 125.67412 32931 ft 443 kts 111°
2026-05-04 11:38 10.95543 125.73260 32943 ft 444 kts 111°
2026-05-04 11:39 10.93246 125.79107 32942 ft 444 kts 111°
2026-05-04 11:41 10.85243 125.99477 32942 ft 441 kts 111°
2026-05-04 11:41 10.82961 126.05280 32935 ft 442 kts 111°
2026-05-04 11:42 10.80679 126.11078 32947 ft 442 kts 111°
2026-05-04 11:42 10.78399 126.16870 32932 ft 442 kts 111°
2026-05-04 11:43 10.76115 126.22666 32934 ft 440 kts 111°
2026-05-04 11:43 10.73836 126.28446 32945 ft 442 kts 111°
2026-05-04 11:44 10.71546 126.34250 32929 ft 442 kts 111°
2026-05-04 11:44 10.69272 126.40010 32940 ft 439 kts 111°
2026-05-04 11:45 10.66987 126.45797 32938 ft 440 kts 111°
2026-05-04 11:45 10.64710 126.51557 32944 ft 442 kts 112°
2026-05-04 11:46 10.62404 126.57389 32945 ft 443 kts 112°
2026-05-04 11:46 10.60109 126.63186 32928 ft 443 kts 111°
2026-05-04 11:47 10.57808 126.68998 32943 ft 442 kts 111°
2026-05-04 11:47 10.55526 126.74758 32937 ft 440 kts 111°
2026-05-04 11:48 10.53237 126.80531 32935 ft 439 kts 111°
2026-05-04 11:48 10.50963 126.86263 32947 ft 440 kts 111°
2026-05-04 11:49 10.48664 126.92057 32934 ft 441 kts 111°
2026-05-04 11:49 10.46379 126.97808 32942 ft 439 kts 111°
2026-05-04 11:50 10.44084 127.03583 32941 ft 440 kts 112°
2026-05-04 11:50 10.41796 127.09338 32940 ft 442 kts 112°
2026-05-04 11:51 10.39489 127.15136 32953 ft 442 kts 111°
2026-05-04 11:51 10.37180 127.20936 32933 ft 443 kts 112°
2026-05-04 11:52 10.34877 127.26716 32945 ft 441 kts 112°
2026-05-04 11:52 10.32589 127.32457 32940 ft 440 kts 112°
2026-05-04 11:53 10.30289 127.38223 32934 ft 438 kts 112°
2026-05-04 11:53 10.28012 127.43929 32946 ft 438 kts 112°
2026-05-04 11:55 10.18820 127.66930 32938 ft 441 kts 112°
2026-05-04 11:56 10.16892 127.71746 32941 ft 440 kts 111°
2026-05-04 11:56 10.14204 127.78459 32931 ft 440 kts 111°
2026-05-04 11:57 10.12291 127.83234 32940 ft 438 kts 111°
2026-05-04 11:57 10.09987 127.88982 32937 ft 438 kts 112°
2026-05-04 11:58 10.07702 127.94676 32942 ft 438 kts 112°
2026-05-04 11:58 10.05396 128.00424 32944 ft 438 kts 112°
2026-05-04 11:59 10.03104 128.06130 32932 ft 439 kts 112°
2026-05-04 11:59 10.00796 128.11874 32938 ft 438 kts 112°
2026-05-04 12:00 9.98509 128.17564 32935 ft 438 kts 112°
2026-05-04 12:00 9.96201 128.23302 32948 ft 439 kts 112°
2026-05-04 12:01 9.93887 128.29050 32936 ft 439 kts 112°
2026-05-04 12:02 9.85815 128.49081 32940 ft 437 kts 112°
2026-05-04 12:03 9.83514 128.54783 32929 ft 437 kts 112°
2026-05-04 12:03 9.81202 128.60509 32945 ft 438 kts 112°
2026-05-04 12:04 9.78899 128.66211 32938 ft 440 kts 112°
2026-05-04 12:04 9.76586 128.71934 32937 ft 440 kts 112°
2026-05-04 12:05 9.74259 128.77689 32941 ft 440 kts 112°
2026-05-04 12:05 9.71933 128.83436 32925 ft 439 kts 112°
2026-05-04 12:06 9.69617 128.89158 32936 ft 438 kts 112°
2026-05-04 12:06 9.67311 128.94851 32930 ft 437 kts 113°
2026-05-04 12:07 9.65005 129.00541 32929 ft 438 kts 113°
2026-05-04 12:07 9.62681 129.06270 32934 ft 438 kts 113°
2026-05-04 12:08 9.60369 129.11969 32926 ft 439 kts 113°
2026-05-04 12:08 9.58039 129.17709 32935 ft 439 kts 113°
2026-05-04 12:09 9.55723 129.23410 32929 ft 440 kts 113°
2026-05-04 12:09 9.53386 129.29161 32934 ft 440 kts 113°
2026-05-04 12:10 9.51062 129.34878 32934 ft 440 kts 113°
2026-05-04 12:10 9.48728 129.40616 32925 ft 440 kts 113°
2026-05-04 12:11 9.46404 129.46326 32937 ft 439 kts 113°
2026-05-04 12:11 9.44069 129.52060 32927 ft 440 kts 113°
2026-05-04 12:12 9.41728 129.57804 32930 ft 441 kts 113°
2026-05-04 12:12 9.39378 129.63568 32927 ft 442 kts 113°
2026-05-04 12:14 9.30024 129.86486 32933 ft 439 kts 113°
2026-05-04 12:15 9.27692 129.92192 32926 ft 438 kts 113°
2026-05-04 12:15 9.25360 129.97894 32924 ft 437 kts 113°
2026-05-04 12:16 9.23514 130.03742 32933 ft 439 kts 104°
2026-05-04 12:16 9.22088 130.09768 32927 ft 440 kts 104°
2026-05-04 12:17 9.20666 130.15780 32929 ft 441 kts 104°
2026-05-04 12:17 9.19213 130.21838 32932 ft 440 kts 104°
2026-05-04 12:18 9.17765 130.27825 32918 ft 439 kts 104°
2026-05-04 12:18 9.16307 130.33835 32926 ft 438 kts 104°
2026-05-04 12:19 9.14858 130.39805 32930 ft 436 kts 104°
2026-05-04 12:19 9.13410 130.45761 32930 ft 438 kts 104°
2026-05-04 12:20 9.11950 130.51769 32925 ft 440 kts 104°
2026-05-04 12:20 9.10492 130.57762 32934 ft 441 kts 104°
2026-05-04 12:21 9.09020 130.63811 32924 ft 442 kts 104°
2026-05-04 12:21 9.07547 130.69856 32923 ft 442 kts 104°
2026-05-04 12:22 9.06084 130.75861 32927 ft 440 kts 104°
2026-05-04 12:22 9.04615 130.81882 32920 ft 439 kts 104°
2026-05-04 12:23 9.03157 130.87853 32919 ft 438 kts 104°
2026-05-04 12:23 9.01694 130.93840 32933 ft 436 kts 104°
2026-05-04 12:24 9.00248 130.99751 32924 ft 434 kts 104°
2026-05-04 12:24 8.98792 131.05701 32926 ft 436 kts 104°
2026-05-04 12:25 8.97341 131.11629 32935 ft 435 kts 104°
2026-05-04 12:25 8.95885 131.17567 32922 ft 434 kts 104°
2026-05-04 12:26 8.94434 131.23486 32918 ft 432 kts 104°
2026-05-04 12:26 8.92981 131.29407 32933 ft 434 kts 104°
2026-05-04 12:27 8.91526 131.35330 32922 ft 435 kts 104°
2026-05-04 12:27 8.90070 131.41255 32924 ft 436 kts 104°
2026-05-04 12:28 8.88601 131.47229 32920 ft 436 kts 104°
2026-05-04 12:28 8.87147 131.53136 32917 ft 435 kts 104°
2026-05-04 12:29 8.85686 131.59066 32917 ft 433 kts 104°
2026-05-04 12:29 8.84232 131.64968 32919 ft 432 kts 104°
2026-05-04 12:30 8.82785 131.70834 32925 ft 432 kts 104°
2026-05-04 12:30 8.81323 131.76755 32923 ft 433 kts 104°
2026-05-04 12:31 8.79870 131.82637 32922 ft 433 kts 104°
2026-05-04 12:31 8.78407 131.88556 32916 ft 433 kts 104°
2026-05-04 12:32 8.76217 131.97410 32912 ft 433 kts 104°
2026-05-04 12:33 8.74753 132.03322 32919 ft 432 kts 103°
2026-05-04 12:33 8.73299 132.09187 32917 ft 431 kts 103°
2026-05-04 12:34 8.71840 132.15075 32914 ft 430 kts 103°
2026-05-04 12:34 8.70387 132.20927 32919 ft 430 kts 103°
2026-05-04 12:35 8.68925 132.26815 32922 ft 432 kts 103°
2026-05-04 12:35 8.67468 132.32680 32915 ft 433 kts 103°
2026-05-04 12:36 8.65994 132.38608 32917 ft 433 kts 103°
2026-05-04 12:36 8.64525 132.44510 32914 ft 433 kts 103°
2026-05-04 12:37 8.63062 132.50388 32912 ft 433 kts 103°
2026-05-04 12:37 8.61592 132.56285 32911 ft 432 kts 103°
2026-05-04 12:38 8.60128 132.62157 32911 ft 431 kts 103°
2026-05-04 12:38 8.58666 132.68018 32914 ft 431 kts 103°
2026-05-04 12:39 8.57195 132.73911 32918 ft 432 kts 103°
2026-05-04 12:39 8.55730 132.79774 32919 ft 433 kts 103°
2026-05-04 12:40 8.54247 132.85702 32912 ft 434 kts 103°
2026-05-04 12:40 8.52777 132.91577 32920 ft 433 kts 103°
2026-05-04 12:41 8.51298 132.97485 32912 ft 433 kts 103°
2026-05-04 12:41 8.49818 133.03395 32910 ft 432 kts 103°
2026-05-04 12:42 8.48352 133.09240 32909 ft 431 kts 104°
2026-05-04 12:42 8.46871 133.15142 32915 ft 431 kts 104°
2026-05-04 12:43 8.45402 133.20994 32900 ft 432 kts 104°
2026-05-04 12:43 8.44170 133.25899 32912 ft 432 kts 104°
2026-05-04 12:44 8.42440 133.32783 32921 ft 433 kts 104°
2026-05-04 12:44 8.41206 133.37690 32907 ft 433 kts 104°
2026-05-04 12:45 8.39722 133.43585 32910 ft 432 kts 104°
2026-05-04 12:45 8.38250 133.49426 32909 ft 429 kts 104°
2026-05-04 12:46 8.36781 133.55256 32901 ft 429 kts 104°
2026-05-04 12:46 8.35300 133.61130 32919 ft 431 kts 104°
2026-05-04 12:47 8.33824 133.66979 32903 ft 432 kts 104°
2026-05-04 12:47 8.32333 133.72884 32900 ft 433 kts 104°
2026-05-04 12:48 8.30849 133.78756 32912 ft 432 kts 104°
2026-05-04 12:48 8.29370 133.84607 32904 ft 430 kts 104°
2026-05-04 12:49 8.27895 133.90434 32899 ft 426 kts 104°
2026-05-04 12:49 8.26424 133.96246 32916 ft 428 kts 104°
2026-05-04 12:50 8.24952 134.02057 32899 ft 429 kts 104°
2026-05-04 12:50 8.23482 134.07856 32898 ft 427 kts 104°
2026-05-04 12:51 8.22002 134.13688 32903 ft 427 kts 104°
2026-05-04 12:51 8.20526 134.19502 32893 ft 427 kts 104°
2026-05-04 12:52 8.19057 134.25287 32905 ft 427 kts 104°
2026-05-04 12:52 8.17587 134.31073 32904 ft 427 kts 104°
2026-05-04 12:53 8.16109 134.36882 32892 ft 427 kts 104°
2026-05-04 12:53 8.14629 134.42699 32897 ft 426 kts 104°
2026-05-04 12:54 8.13157 134.48482 32897 ft 427 kts 104°
2026-05-04 12:54 8.11685 134.54256 32893 ft 428 kts 104°
2026-05-04 12:55 8.10198 134.60092 32900 ft 429 kts 104°
2026-05-04 12:55 8.08704 134.65946 32895 ft 429 kts 104°
2026-05-04 12:56 8.07224 134.71747 32883 ft 428 kts 104°
2026-05-04 12:56 8.05734 134.77577 32899 ft 428 kts 104°
2026-05-04 12:57 8.04250 134.83385 32896 ft 429 kts 104°
2026-05-04 12:57 8.02757 134.89224 32889 ft 430 kts 104°
2026-05-04 12:58 8.01262 134.95068 32904 ft 428 kts 104°
2026-05-04 12:58 7.99390 135.00742 32896 ft 428 kts 114°
2026-05-04 12:59 7.96528 135.06016 32885 ft 428 kts 121°
2026-05-04 12:59 7.93455 135.11144 32899 ft 429 kts 121°
2026-05-04 13:00 7.90380 135.16284 32885 ft 428 kts 121°
2026-05-04 13:00 7.87313 135.21444 32897 ft 429 kts 121°
2026-05-04 13:01 7.84240 135.26632 32896 ft 430 kts 121°
2026-05-04 13:01 7.81186 135.31791 32878 ft 431 kts 121°
2026-05-04 13:02 7.78100 135.37003 32904 ft 431 kts 121°
2026-05-04 13:02 7.75041 135.42166 32888 ft 432 kts 121°
2026-05-04 13:03 7.71947 135.47385 32901 ft 433 kts 121°
2026-05-04 13:03 7.68860 135.52592 32884 ft 434 kts 121°
2026-05-04 13:04 7.65754 135.57828 32900 ft 434 kts 121°
2026-05-04 13:04 7.62649 135.63061 32882 ft 434 kts 121°
2026-05-04 13:05 7.59562 135.68263 32887 ft 433 kts 121°
2026-05-04 13:05 7.56468 135.73474 32880 ft 432 kts 121°
2026-05-04 13:06 7.53390 135.78655 32905 ft 433 kts 121°
2026-05-04 13:06 7.50285 135.83881 32890 ft 434 kts 121°
2026-05-04 13:07 7.47177 135.89112 32881 ft 434 kts 121°
2026-05-04 13:07 7.44096 135.94293 32880 ft 433 kts 121°
2026-05-04 13:08 7.41001 135.99496 32896 ft 431 kts 120°
2026-05-04 13:08 7.37936 136.04648 32873 ft 428 kts 120°
2026-05-04 13:09 7.34876 136.09790 32875 ft 425 kts 120°
2026-05-04 13:09 7.31843 136.14885 32880 ft 424 kts 120°
2026-05-04 13:10 7.28813 136.19973 32890 ft 426 kts 120°
2026-05-04 13:10 7.25757 136.25103 32883 ft 425 kts 120°
2026-05-04 13:11 7.22729 136.30184 32889 ft 425 kts 120°
2026-05-04 13:11 7.19697 136.35270 32884 ft 424 kts 120°
2026-05-04 13:12 7.16653 136.40374 32891 ft 424 kts 120°
2026-05-04 13:12 7.13633 136.45437 32881 ft 423 kts 120°
2026-05-04 13:13 7.10597 136.50525 32886 ft 423 kts 120°
2026-05-04 13:13 7.07578 136.55583 32888 ft 424 kts 120°
2026-05-04 13:14 7.04531 136.60688 32891 ft 424 kts 120°
2026-05-04 13:14 7.01501 136.65761 32884 ft 424 kts 120°
2026-05-04 13:15 6.98454 136.70861 32882 ft 424 kts 120°
2026-05-04 13:15 6.95427 136.75925 32884 ft 423 kts 120°
2026-05-04 13:16 6.92389 136.81008 32894 ft 422 kts 120°
2026-05-04 13:16 6.89362 136.86070 32880 ft 421 kts 120°
2026-05-04 13:17 6.86353 136.91099 32883 ft 420 kts 120°
2026-05-04 13:17 6.83326 136.96159 32890 ft 421 kts 120°
2026-05-04 13:18 6.80309 137.01201 32894 ft 421 kts 120°
2026-05-04 13:18 6.77281 137.06259 32887 ft 422 kts 120°
2026-05-04 13:19 6.74267 137.11290 32888 ft 421 kts 120°
2026-05-04 13:19 6.71254 137.16319 32887 ft 421 kts 120°
2026-05-04 13:20 6.68227 137.21371 32886 ft 420 kts 120°
2026-05-04 13:20 6.65214 137.26399 32893 ft 421 kts 120°
2026-05-04 13:21 6.62173 137.31470 32891 ft 422 kts 120°
2026-05-04 13:21 6.59139 137.36529 32890 ft 423 kts 120°
2026-05-04 13:22 6.56111 137.41576 32900 ft 423 kts 120°
2026-05-04 13:22 6.53066 137.46651 32888 ft 422 kts 120°
2026-05-04 13:23 6.50046 137.51681 32890 ft 420 kts 120°
2026-05-04 13:23 6.47034 137.56697 32889 ft 419 kts 120°
2026-05-04 13:24 6.44014 137.61725 32890 ft 418 kts 120°
2026-05-04 13:24 6.41009 137.66727 32904 ft 420 kts 120°
2026-05-04 13:25 6.36479 137.74265 32897 ft 421 kts 120°
2026-05-04 13:25 6.33437 137.79324 32896 ft 421 kts 120°
2026-05-04 13:26 6.30421 137.84340 32895 ft 420 kts 120°
2026-05-04 13:26 6.27388 137.89382 32894 ft 420 kts 120°
2026-05-04 13:27 6.24387 137.94369 32895 ft 419 kts 120°
2026-05-04 13:27 6.21364 137.99392 32890 ft 418 kts 120°
2026-05-04 13:28 6.18364 138.04375 32903 ft 419 kts 120°
2026-05-04 13:28 6.15850 138.08550 32899 ft 419 kts 120°
2026-05-04 13:29 6.12330 138.14394 32897 ft 419 kts 120°
2026-05-04 13:29 6.09810 138.18576 32896 ft 419 kts 120°
2026-05-04 13:30 6.06786 138.23594 32897 ft 419 kts 120°
2026-05-04 13:30 6.03778 138.28584 32895 ft 418 kts 120°
2026-05-04 13:31 6.00770 138.33573 32893 ft 417 kts 120°
2026-05-04 13:31 5.97756 138.38570 32895 ft 416 kts 120°
2026-05-04 13:32 5.94777 138.43508 32894 ft 415 kts 120°
2026-05-04 13:32 5.91780 138.48475 32903 ft 415 kts 120°
2026-05-04 13:33 5.88779 138.53447 32898 ft 415 kts 120°
2026-05-04 13:33 5.85804 138.58374 32901 ft 414 kts 120°
2026-05-04 13:34 5.82806 138.63339 32900 ft 414 kts 120°
2026-05-04 13:34 5.79827 138.68270 32898 ft 414 kts 120°
2026-05-04 13:35 5.75338 138.75700 32903 ft 415 kts 120°
2026-05-04 13:36 5.72350 138.80644 32903 ft 416 kts 120°
2026-05-04 13:36 5.69357 138.85595 32900 ft 416 kts 120°
2026-05-04 13:37 5.66348 138.90571 32904 ft 417 kts 120°
2026-05-04 13:37 5.63335 138.95551 32901 ft 416 kts 120°
2026-05-04 13:38 5.60326 139.00525 32897 ft 416 kts 120°
2026-05-04 13:38 5.57339 139.05460 32895 ft 415 kts 120°
2026-05-04 13:39 5.54336 139.10422 32897 ft 415 kts 120°
2026-05-04 13:39 5.51338 139.15374 32898 ft 414 kts 120°
2026-05-04 13:40 5.48361 139.20290 32900 ft 415 kts 120°
2026-05-04 13:40 5.45350 139.25261 32900 ft 416 kts 120°
2026-05-04 13:41 5.42353 139.30208 32906 ft 417 kts 120°
2026-05-04 13:41 5.39322 139.35209 32902 ft 418 kts 120°
2026-05-04 13:42 5.34794 139.42678 32899 ft 418 kts 120°
2026-05-04 13:42 5.31764 139.47677 32900 ft 417 kts 120°
2026-05-04 13:43 5.28758 139.52632 32900 ft 416 kts 120°
2026-05-04 13:43 5.25744 139.57600 32901 ft 415 kts 120°
2026-05-04 13:44 5.22757 139.62524 32899 ft 414 kts 120°
2026-05-04 13:44 5.19737 139.67500 32906 ft 418 kts 120°
2026-05-04 13:45 5.16718 139.72473 32908 ft 419 kts 120°
2026-05-04 13:45 5.13679 139.77479 32901 ft 419 kts 120°
2026-05-04 13:46 5.10656 139.82457 32904 ft 418 kts 120°
2026-05-04 13:46 5.07640 139.87422 32904 ft 418 kts 120°
2026-05-04 13:47 5.04606 139.92416 32900 ft 417 kts 120°
2026-05-04 13:47 5.01598 139.97368 32900 ft 416 kts 120°
2026-05-04 13:48 4.98602 140.02318 32906 ft 417 kts 120°
2026-05-04 13:48 4.95621 140.07328 32905 ft 418 kts 120°
2026-05-04 13:49 4.92627 140.12373 32910 ft 421 kts 120°
2026-05-04 13:49 4.89639 140.17402 32906 ft 422 kts 120°
2026-05-04 13:50 4.86641 140.22440 32905 ft 422 kts 120°
2026-05-04 13:50 4.83630 140.27496 32900 ft 421 kts 120°
2026-05-04 13:51 4.80622 140.32547 32899 ft 420 kts 120°
2026-05-04 13:51 4.77636 140.37560 32900 ft 420 kts 120°
2026-05-04 13:52 4.73164 140.45064 32905 ft 418 kts 120°
2026-05-04 13:53 4.70179 140.50073 32902 ft 417 kts 120°
2026-05-04 13:53 4.67177 140.55111 32913 ft 422 kts 120°
2026-05-04 13:54 4.62669 140.62672 32900 ft 422 kts 120°
2026-05-04 13:55 4.58140 140.70263 32903 ft 422 kts 120°
2026-05-04 13:55 4.53644 140.77799 32900 ft 420 kts 120°
2026-05-04 13:56 4.50651 140.82816 32904 ft 420 kts 120°
2026-05-04 13:57 4.46165 140.90330 32907 ft 420 kts 120°
2026-05-04 13:58 4.40148 141.00408 32908 ft 420 kts 120°
2026-05-04 13:58 4.35645 141.07946 32903 ft 421 kts 120°
2026-05-04 13:59 4.32633 141.12988 32902 ft 422 kts 120°
2026-05-04 14:00 4.28119 141.20540 32903 ft 422 kts 120°
2026-05-04 14:00 4.23602 141.28097 32905 ft 422 kts 120°
2026-05-04 14:01 4.20579 141.33153 32902 ft 422 kts 120°
2026-05-04 14:02 4.16066 141.40700 32904 ft 421 kts 120°
2026-05-04 14:02 4.13070 141.45708 32901 ft 421 kts 120°
2026-05-04 14:03 4.10051 141.50754 32902 ft 420 kts 120°
2026-05-04 14:03 4.07057 141.55758 32901 ft 420 kts 120°
2026-05-04 14:04 4.02541 141.63302 32901 ft 420 kts 120°
2026-05-04 14:04 3.99552 141.68295 32899 ft 419 kts 120°
2026-05-04 14:05 3.95055 141.75805 32903 ft 419 kts 120°
2026-05-04 14:06 3.92062 141.80803 32904 ft 419 kts 120°
2026-05-04 14:06 3.89043 141.85842 32907 ft 421 kts 120°
2026-05-04 14:07 3.86039 141.90857 32902 ft 421 kts 120°
2026-05-04 14:07 3.83013 141.95905 32901 ft 421 kts 120°
2026-05-04 14:08 3.80018 142.00904 32899 ft 420 kts 120°
2026-05-04 14:08 3.77002 142.05934 32902 ft 420 kts 120°
2026-05-04 14:09 3.72488 142.13463 32904 ft 421 kts 120°
2026-05-04 14:10 3.67966 142.21003 32903 ft 422 kts 120°
2026-05-04 14:10 3.64933 142.26061 32902 ft 422 kts 120°
2026-05-04 14:11 3.61920 142.31083 32885 ft 422 kts 120°
2026-05-04 14:11 3.57386 142.38639 32902 ft 422 kts 120°
2026-05-04 14:12 3.54362 142.43678 32904 ft 421 kts 120°
2026-05-04 14:13 3.49839 142.51212 32904 ft 421 kts 120°
2026-05-04 14:13 3.46815 142.56250 32907 ft 421 kts 120°
2026-05-04 14:14 3.43805 142.61261 32890 ft 421 kts 120°
2026-05-04 14:14 3.39289 142.68781 32892 ft 421 kts 120°
2026-05-04 14:15 3.33751 142.78000 32907 ft 421 kts 120°
2026-05-04 14:16 3.29232 142.85520 32907 ft 421 kts 120°
2026-05-04 14:17 3.24716 142.93034 32903 ft 421 kts 120°
2026-05-04 14:18 3.20174 143.00589 32906 ft 421 kts 120°
2026-05-04 14:19 3.14137 143.10630 32908 ft 421 kts 120°
2026-05-04 14:19 3.11129 143.15632 32909 ft 421 kts 120°
2026-05-04 14:20 3.08104 143.20661 32886 ft 421 kts 120°
2026-05-04 14:20 3.05079 143.25690 32888 ft 421 kts 120°
2026-05-04 14:21 3.00562 143.33197 32891 ft 423 kts 120°
2026-05-04 14:21 2.97514 143.38261 32907 ft 424 kts 120°
2026-05-04 14:22 2.94460 143.43336 32892 ft 425 kts 120°
2026-05-04 14:22 2.91421 143.48384 32890 ft 424 kts 120°
2026-05-04 14:23 2.86871 143.55942 32905 ft 423 kts 120°
2026-05-04 14:24 2.83826 143.60998 32890 ft 422 kts 120°
2026-05-04 14:24 2.80811 143.66005 32888 ft 421 kts 120°
2026-05-04 14:25 2.77773 143.71050 32909 ft 423 kts 120°
2026-05-04 14:25 2.73219 143.78611 32887 ft 425 kts 120°
2026-05-04 14:26 2.70176 143.83660 32890 ft 426 kts 120°
2026-05-04 14:26 2.67118 143.88737 32908 ft 426 kts 120°
2026-05-04 14:27 2.64059 143.93812 32906 ft 425 kts 120°
2026-05-04 14:27 2.61007 143.98876 32906 ft 424 kts 120°
2026-05-04 14:28 2.57979 144.03900 32885 ft 422 kts 120°
2026-05-04 14:28 2.54951 144.08923 32908 ft 422 kts 120°
2026-05-04 14:29 2.48886 144.18984 32888 ft 423 kts 120°
2026-05-04 14:30 2.45843 144.24030 32907 ft 422 kts 120°
2026-05-04 14:31 2.41315 144.31538 32911 ft 422 kts 120°
2026-05-04 14:32 2.35216 144.41650 32887 ft 424 kts 120°
2026-05-04 14:32 2.32182 144.46678 32908 ft 424 kts 120°
2026-05-04 14:33 2.29124 144.51746 32907 ft 424 kts 120°
2026-05-04 14:33 2.26092 144.56772 32895 ft 423 kts 120°
2026-05-04 14:34 2.23055 144.61803 32894 ft 422 kts 120°
2026-05-04 14:34 2.20009 144.66850 32890 ft 421 kts 120°
2026-05-04 14:35 2.16992 144.71849 32910 ft 422 kts 120°
2026-05-04 14:35 2.13950 144.76890 32905 ft 423 kts 120°
2026-05-04 14:36 2.10922 144.81906 32886 ft 423 kts 120°
2026-05-04 14:36 2.07875 144.86954 32887 ft 423 kts 120°
2026-05-04 14:37 2.04831 144.91997 32889 ft 422 kts 120°
2026-05-04 14:37 2.01813 144.96995 32903 ft 421 kts 120°
2026-05-04 14:38 1.98600 145.01852 32893 ft 420 kts 127°
2026-05-04 14:38 1.94942 145.06412 32893 ft 419 kts 128°
2026-05-04 14:39 1.91287 145.10930 32907 ft 420 kts 128°
2026-05-04 14:39 1.87613 145.15501 32891 ft 420 kts 128°
2026-05-04 14:40 1.82141 145.22341 32893 ft 420 kts 128°
2026-05-04 14:40 1.78508 145.26888 32888 ft 420 kts 128°
2026-05-04 14:41 1.74856 145.31457 32888 ft 419 kts 128°
2026-05-04 14:42 1.67593 145.40545 32893 ft 417 kts 128°
2026-05-04 14:42 1.63986 145.45057 32889 ft 416 kts 128°
2026-05-04 14:43 1.60358 145.49595 32890 ft 417 kts 128°
2026-05-04 14:43 1.56754 145.54103 32911 ft 418 kts 128°
2026-05-04 14:44 1.53117 145.58652 32888 ft 418 kts 128°
2026-05-04 14:44 1.49504 145.63171 32894 ft 418 kts 128°
2026-05-04 14:45 1.45858 145.67730 32893 ft 418 kts 128°
2026-05-04 14:45 1.42244 145.72250 32893 ft 418 kts 128°
2026-05-04 14:46 1.38623 145.76777 32893 ft 417 kts 128°
2026-05-04 14:46 1.34992 145.81317 32892 ft 417 kts 128°
2026-05-04 14:47 1.31377 145.85837 32893 ft 417 kts 128°
2026-05-04 14:47 1.27750 145.90371 32893 ft 416 kts 128°
2026-05-04 14:48 1.24149 145.94873 32892 ft 417 kts 127°
2026-05-04 14:48 1.20513 145.99419 32895 ft 418 kts 127°
2026-05-04 14:49 1.16869 146.03975 32896 ft 419 kts 127°
2026-05-04 14:49 1.13235 146.08517 32894 ft 420 kts 127°
2026-05-04 14:50 1.09578 146.13088 32889 ft 419 kts 127°
2026-05-04 14:50 1.05958 146.17612 32894 ft 418 kts 127°
2026-05-04 14:51 1.02325 146.22153 32894 ft 417 kts 127°
2026-05-04 14:51 0.98722 146.26655 32892 ft 416 kts 127°
2026-05-04 14:52 0.95104 146.31177 32896 ft 416 kts 127°
2026-05-04 14:52 0.91505 146.35675 32895 ft 415 kts 127°
2026-05-04 14:53 0.87887 146.40196 32891 ft 415 kts 127°
2026-05-04 14:53 0.84302 146.44677 32889 ft 414 kts 127°
2026-05-04 14:54 0.80703 146.49173 32898 ft 414 kts 127°
2026-05-04 14:54 0.77101 146.53675 32897 ft 415 kts 127°
2026-05-04 14:55 0.73503 146.58170 32897 ft 416 kts 127°
2026-05-04 14:55 0.69880 146.62697 32894 ft 416 kts 127°
2026-05-04 14:56 0.66276 146.67200 32894 ft 416 kts 127°
2026-05-04 14:56 0.62649 146.71731 32890 ft 416 kts 127°
2026-05-04 14:57 0.59047 146.76232 32884 ft 416 kts 127°
2026-05-04 14:57 0.55442 146.80736 32888 ft 415 kts 127°
2026-05-04 14:58 0.51823 146.85257 32884 ft 415 kts 128°
2026-05-04 14:58 0.48817 146.89013 32889 ft 415 kts 128°
2026-05-04 14:59 0.44602 146.94278 32891 ft 417 kts 128°
2026-05-04 15:00 0.39166 147.01069 32892 ft 418 kts 128°
2026-05-04 15:00 0.35555 147.05580 32888 ft 418 kts 128°
2026-05-04 15:01 0.30104 147.12390 32891 ft 417 kts 128°
2026-05-04 15:01 0.26492 147.16902 32891 ft 416 kts 128°
2026-05-04 15:02 0.22885 147.21407 32886 ft 415 kts 128°
2026-05-04 15:02 0.19880 147.25161 32887 ft 415 kts 128°
2026-05-04 15:03 0.15674 147.30415 32890 ft 416 kts 128°
2026-05-04 15:03 0.12662 147.34178 32891 ft 417 kts 128°
2026-05-04 15:04 0.09030 147.38716 32889 ft 418 kts 128°
2026-05-04 15:04 0.05389 147.43265 32889 ft 418 kts 128°
2026-05-04 15:05 0.01774 147.47781 32891 ft 418 kts 128°
2026-05-04 15:05 -0.01869 147.52331 32890 ft 418 kts 129°
2026-05-04 15:06 -0.05486 147.56846 32888 ft 417 kts 129°
2026-05-04 15:07 -0.10915 147.63624 32886 ft 416 kts 129°
2026-05-04 15:07 -0.14542 147.68154 32886 ft 416 kts 128°
2026-05-04 15:08 -0.18151 147.72664 32892 ft 417 kts 128°
2026-05-04 15:08 -0.21796 147.77216 32888 ft 418 kts 128°
2026-05-04 15:09 -0.25420 147.81744 32888 ft 419 kts 128°
2026-05-04 15:09 -0.29071 147.86303 32885 ft 419 kts 128°
2026-05-04 15:10 -0.34528 147.93121 32886 ft 419 kts 128°
2026-05-04 15:11 -0.39973 147.99923 32884 ft 418 kts 128°
2026-05-04 15:11 -0.43589 148.04439 32885 ft 418 kts 128°
2026-05-04 15:12 -0.47232 148.08991 32890 ft 419 kts 128°
2026-05-04 15:12 -0.50864 148.13528 32893 ft 420 kts 128°
2026-05-04 15:13 -0.54527 148.18104 32890 ft 421 kts 128°
2026-05-04 15:13 -0.58191 148.22682 32886 ft 421 kts 128°
2026-05-04 15:14 -0.61825 148.27221 32889 ft 421 kts 128°
2026-05-04 15:14 -0.65485 148.31794 32885 ft 420 kts 127°
2026-05-04 15:15 -0.69121 148.36337 32883 ft 420 kts 127°
2026-05-04 15:15 -0.72774 148.40901 32889 ft 419 kts 127°
2026-05-04 15:16 -0.78233 148.47723 32895 ft 420 kts 127°
2026-05-04 15:17 -0.83732 148.54594 32889 ft 422 kts 127°
2026-05-04 15:17 -0.89223 148.61456 32885 ft 422 kts 127°
2026-05-04 15:18 -0.92866 148.66007 32884 ft 421 kts 127°
2026-05-04 15:19 -0.98351 148.72862 32881 ft 419 kts 127°
2026-05-04 15:19 -1.03813 148.79689 32889 ft 420 kts 127°
2026-05-04 15:20 -1.07463 148.84250 32885 ft 420 kts 127°
2026-05-04 15:20 -1.11088 148.88782 32883 ft 419 kts 127°
2026-05-04 15:21 -1.14739 148.93345 32882 ft 419 kts 127°
2026-05-04 15:22 -1.20195 149.00166 32883 ft 419 kts 127°
2026-05-04 15:22 -1.25651 149.06986 32886 ft 419 kts 127°
2026-05-04 15:23 -1.29279 149.11522 32882 ft 419 kts 127°
2026-05-04 15:23 -1.32914 149.16067 32879 ft 418 kts 127°
2026-05-04 15:24 -1.40172 149.25142 32886 ft 418 kts 127°
2026-05-04 15:25 -1.43790 149.29667 32886 ft 418 kts 127°
2026-05-04 15:26 -1.49252 149.36497 32886 ft 418 kts 127°
2026-05-04 15:26 -1.54688 149.43296 32887 ft 419 kts 127°
2026-05-04 15:27 -1.60153 149.50132 32884 ft 419 kts 127°
2026-05-04 15:28 -1.65596 149.56940 32876 ft 419 kts 127°
2026-05-04 15:29 -1.71053 149.63767 32885 ft 419 kts 127°
2026-05-04 15:30 -1.83778 149.79690 32883 ft 418 kts 127°
2026-05-04 15:31 -1.89218 149.86500 32883 ft 418 kts 127°
2026-05-04 15:32 -1.98279 149.97842 32882 ft 417 kts 127°
2026-05-04 15:34 -2.06881 150.09490 32880 ft 416 kts 124°
2026-05-04 15:34 -2.11913 150.16553 32880 ft 416 kts 124°
2026-05-04 15:35 -2.16965 150.23587 32878 ft 416 kts 124°
2026-05-04 15:36 -2.22029 150.30630 32875 ft 416 kts 124°
2026-05-04 15:36 -2.25413 150.35336 32874 ft 416 kts 124°
2026-05-04 15:37 -2.28775 150.40014 32882 ft 415 kts 124°
2026-05-04 15:37 -2.32137 150.44693 32880 ft 415 kts 124°
2026-05-04 15:38 -2.35517 150.49397 32881 ft 416 kts 124°
2026-05-04 15:38 -2.38907 150.54116 32877 ft 417 kts 124°
2026-05-04 15:39 -2.42285 150.58818 32881 ft 418 kts 124°
2026-05-04 15:40 -2.47369 150.65896 32874 ft 418 kts 124°
2026-05-04 15:40 -2.50760 150.70618 32875 ft 418 kts 124°
2026-05-04 15:41 -2.54165 150.75361 32876 ft 417 kts 124°
2026-05-04 15:41 -2.57555 150.80051 32875 ft 417 kts 127°
2026-05-04 15:42 -2.61551 150.84256 32871 ft 416 kts 136°
2026-05-04 15:42 -2.65859 150.88102 32880 ft 417 kts 137°
2026-05-04 15:43 -2.70216 150.91986 32877 ft 419 kts 137°
2026-05-04 15:43 -2.74564 150.95888 32881 ft 421 kts 136°
2026-05-04 15:44 -2.78904 150.99800 32880 ft 423 kts 136°
2026-05-04 15:44 -2.83281 151.03750 32873 ft 423 kts 136°
2026-05-04 15:45 -2.87654 151.07697 32874 ft 422 kts 136°
2026-05-04 15:45 -2.92018 151.11637 32873 ft 421 kts 136°
2026-05-04 15:46 -2.96336 151.15535 32871 ft 419 kts 136°
2026-05-04 15:46 -3.00664 151.19442 32874 ft 418 kts 136°
2026-05-04 15:47 -3.04975 151.23335 32883 ft 419 kts 136°
2026-05-04 15:47 -3.09317 151.27257 32883 ft 420 kts 136°
2026-05-04 15:48 -3.13651 151.31171 32881 ft 421 kts 136°
2026-05-04 15:48 -3.20176 151.37065 32882 ft 421 kts 136°
2026-05-04 15:49 -3.24506 151.40977 32879 ft 421 kts 136°
2026-05-04 15:49 -3.28858 151.44909 32878 ft 420 kts 136°
2026-05-04 15:50 -3.33194 151.48827 32874 ft 419 kts 136°
2026-05-04 15:50 -3.37508 151.52726 32870 ft 419 kts 136°
2026-05-04 15:51 -3.41122 151.55994 32882 ft 421 kts 136°
2026-05-04 15:51 -3.45482 151.59934 32885 ft 422 kts 136°
2026-05-04 15:52 -3.49855 151.63888 32879 ft 423 kts 137°
2026-05-04 15:52 -3.54224 151.67839 32879 ft 423 kts 137°
2026-05-04 15:53 -3.58564 151.71763 32875 ft 422 kts 137°
2026-05-04 15:53 -3.62918 151.75701 32871 ft 420 kts 137°
2026-05-04 15:54 -3.67249 151.79618 32868 ft 418 kts 137°
2026-05-04 15:54 -3.71548 151.83508 32875 ft 419 kts 137°
2026-05-04 15:55 -3.75910 151.87455 32881 ft 421 kts 137°
2026-05-04 15:55 -3.80233 151.91368 32874 ft 422 kts 137°
2026-05-04 15:56 -3.84596 151.95316 32873 ft 422 kts 137°
2026-05-04 15:56 -3.88935 151.99244 32873 ft 421 kts 137°
2026-05-04 15:57 -3.93280 152.03177 32869 ft 420 kts 137°
2026-05-04 15:57 -3.97590 152.07079 32869 ft 418 kts 137°
2026-05-04 15:58 -4.01908 152.10990 32870 ft 417 kts 137°
2026-05-04 15:58 -4.06230 152.14905 32880 ft 419 kts 137°
2026-05-04 15:59 -4.10549 152.18817 32883 ft 422 kts 137°
2026-05-04 15:59 -4.14924 152.22782 32884 ft 424 kts 137°
2026-05-04 16:00 -4.19280 152.26729 32880 ft 424 kts 136°
2026-05-04 16:00 -4.23669 152.30707 32881 ft 424 kts 136°
2026-05-04 16:01 -4.28018 152.34649 32871 ft 422 kts 137°
2026-05-04 16:01 -4.32344 152.38571 32868 ft 419 kts 137°
2026-05-04 16:02 -4.36666 152.42489 32878 ft 418 kts 137°
2026-05-04 16:03 -4.43145 152.48365 32887 ft 420 kts 136°
2026-05-04 16:03 -4.47492 152.52309 32889 ft 420 kts 136°
2026-05-04 16:04 -4.51812 152.56229 32889 ft 419 kts 137°
2026-05-04 16:04 -4.58280 152.62098 32887 ft 419 kts 137°
2026-05-04 16:05 -4.62601 152.66020 32884 ft 418 kts 137°
2026-05-04 16:06 -4.69062 152.71885 32883 ft 417 kts 137°
2026-05-04 16:07 -4.77668 152.79701 32884 ft 417 kts 137°
2026-05-04 16:08 -4.86261 152.87508 32877 ft 417 kts 137°
2026-05-04 16:09 -4.96986 152.97258 32872 ft 416 kts 137°
2026-05-04 16:10 -5.05875 153.04705 32878 ft 418 kts 141°
2026-05-04 16:11 -5.15043 153.11885 32874 ft 419 kts 141°
2026-05-04 16:12 -5.28750 153.22716 32867 ft 415 kts 141°
2026-05-04 16:13 -5.37798 153.29873 32876 ft 415 kts 141°
2026-05-04 16:14 -5.46853 153.37039 32874 ft 417 kts 141°
2026-05-04 16:16 -5.58243 153.46056 32872 ft 416 kts 141°
2026-05-04 16:17 -5.69583 153.55038 32865 ft 413 kts 141°
2026-05-04 16:18 -5.78591 153.62177 32872 ft 414 kts 141°
2026-05-04 16:19 -5.89939 153.71174 32873 ft 417 kts 141°
2026-05-04 16:20 -6.01330 153.80209 32866 ft 417 kts 141°
2026-05-04 16:22 -6.12659 153.89201 32863 ft 414 kts 141°
2026-05-04 16:23 -6.26259 154.00002 32869 ft 416 kts 141°
2026-05-04 16:25 -6.39886 154.10831 32864 ft 416 kts 141°
2026-05-04 16:26 -6.55675 154.23389 32869 ft 414 kts 141°
2026-05-04 16:28 -6.66972 154.32380 32869 ft 415 kts 141°
2026-05-04 16:29 -6.82689 154.44913 32854 ft 401 kts 142°
2026-05-04 16:30 -6.89092 154.50036 32824 ft 379 kts 141°
2026-05-04 16:31 -6.93070 154.53195 32428 ft 356 kts 141°
2026-05-04 16:31 -6.98915 154.57838 30917 ft 348 kts 141°
2026-05-04 16:32 -7.04587 154.62356 29464 ft 340 kts 141°
2026-05-04 16:33 -7.08261 154.65287 28418 ft 336 kts 141°
2026-05-04 16:33 -7.11844 154.68146 27560 ft 326 kts 141°
2026-05-04 16:34 -7.15394 154.70980 26640 ft 320 kts 140°
2026-05-04 16:34 -7.17108 154.72348 26199 ft 317 kts 140°
2026-05-04 16:35 -7.22238 154.76444 24904 ft 309 kts 140°
2026-05-04 16:35 -7.27203 154.80410 23707 ft 300 kts 140°
2026-05-04 16:36 -7.28818 154.81700 23261 ft 297 kts 139°
2026-05-04 16:36 -7.31492 154.83836 22530 ft 291 kts 140°
2026-05-04 16:37 -7.34638 154.86351 21649 ft 285 kts 140°
2026-05-04 16:37 -7.36689 154.87990 21052 ft 281 kts 140°
2026-05-04 16:37 -7.39225 154.90018 20343 ft 277 kts 140°
2026-05-04 16:38 -7.42213 154.92407 19574 ft 267 kts 140°
2026-05-04 16:39 -7.43926 154.97721 16183 ft 317 kts 74°
2026-05-04 16:39 -7.41918 155.01124 16528 ft 254 kts 43°
2026-05-04 16:40 -7.38798 155.03081 14538 ft 292 kts 23°
2026-05-04 16:40 -7.34782 155.04273 13347 ft 294 kts 12°
2026-05-04 16:41 -7.31029 155.04760 13063 ft 260 kts
2026-05-04 16:41 -7.25224 155.04947 10733 ft 287 kts
2026-05-04 16:42 -7.19578 155.05063 9731 ft 263 kts
2026-05-04 16:43 -7.15837 155.05298 8330 ft 275 kts
2026-05-04 16:43 -7.12083 155.05726 7522 ft 263 kts
2026-05-04 16:43 -7.10281 155.06014 7106 ft 259 kts 11°
2026-05-04 16:44 -7.03186 155.07761 5066 ft 258 kts 18°
2026-05-04 16:45 -6.99877 155.08948 4193 ft 252 kts 22°
2026-05-04 16:46 -6.95071 155.11173 2686 ft 251 kts 28°
2026-05-04 16:46 -6.92077 155.12893 1819 ft 245 kts 33°
2026-05-04 16:47 -6.89251 155.14800 809 ft 247 kts 36°
2026-05-04 16:47 -6.86585 155.16908 -4 ft 232 kts 40°
2026-05-04 16:48 -6.84106 155.19010 -5 ft 0 kts 39°
2026-05-04 16:49 -6.84107 155.19010 -5 ft 0 kts 40°
2026-05-04 16:51 -6.84108 155.19010 -5 ft 0 kts 40°
2026-05-04 16:52 -6.84108 155.19011 -5 ft 0 kts 40°
2026-05-04 16:53 -6.84109 155.19011 -5 ft 0 kts 41°
2026-05-04 16:56 -6.84110 155.19011 -5 ft 0 kts 41°
2026-05-04 16:58 -6.84111 155.19012 -5 ft 0 kts 42°
2026-05-04 17:00 -6.84112 155.19012 -6 ft 0 kts 43°
2026-05-04 17:02 -6.84113 155.19012 -6 ft 0 kts 43°
2026-05-04 17:03 -6.84113 155.19013 -6 ft 0 kts 43°
2026-05-04 17:05 -6.84114 155.19013 -6 ft 0 kts 44°
2026-05-04 17:07 -6.84115 155.19013 -6 ft 0 kts 44°
2026-05-04 17:09 -6.84115 155.19014 -6 ft 0 kts 45°
2026-05-04 17:09 -6.84116 155.19014 -6 ft 0 kts 45°
2026-05-04 17:11 -6.84117 155.19014 -6 ft 0 kts 45°
2026-05-04 17:14 -6.84118 155.19014 -6 ft 0 kts 46°
2026-05-04 17:15 -6.84118 155.19015 -6 ft 0 kts 46°
2026-05-04 17:16 -6.84119 155.19015 -6 ft 0 kts 47°
2026-05-04 17:18 -6.84120 155.19015 -6 ft 0 kts 47°
2026-05-04 17:20 -6.84121 155.19015 -6 ft 0 kts 48°
2026-05-04 17:22 -6.84121 155.19016 -6 ft 0 kts 48°
2026-05-04 17:23 -6.84122 155.19016 -6 ft 0 kts 49°
2026-05-04 17:25 -6.84123 155.19016 -6 ft 0 kts 49°
2026-05-04 17:27 -6.84124 155.19016 -6 ft 0 kts 50°
2026-05-04 17:29 -6.84125 155.19017 -6 ft 0 kts 50°
2026-05-04 17:31 -6.84126 155.19017 -6 ft 0 kts 51°
2026-05-04 17:34 -6.84127 155.19017 -6 ft 0 kts 51°
2026-05-04 17:35 -6.84128 155.19017 -6 ft 0 kts 52°
2026-05-04 17:37 -6.84128 155.19018 -6 ft 0 kts 52°
2026-05-04 17:38 -6.84129 155.19018 -6 ft 0 kts 52°
2026-05-04 17:40 -6.84130 155.19018 -5 ft 0 kts 53°
2026-05-04 17:42 -6.84131 155.19018 -4 ft 0 kts 53°
2026-05-04 17:44 -6.84132 155.19018 -4 ft 0 kts 54°
2026-05-04 17:46 -6.84133 155.19018 -4 ft 0 kts 55°
2026-05-04 17:47 -6.84133 155.19019 -4 ft 0 kts 55°
2026-05-04 17:48 -6.84134 155.19019 -4 ft 0 kts 56°
2026-05-04 17:51 -6.84135 155.19019 -4 ft 0 kts 56°
2026-05-04 17:53 -6.84136 155.19019 -4 ft 0 kts 57°
2026-05-04 17:55 -6.84137 155.19019 -4 ft 0 kts 57°
2026-05-04 17:57 -6.84138 155.19019 -7 ft 0 kts 58°
2026-05-04 17:59 -6.84139 155.19019 -7 ft 0 kts 59°
2026-05-04 18:01 -6.84139 155.19020 -9 ft 0 kts 59°
2026-05-04 18:01 -6.84140 155.19020 -9 ft 0 kts 59°
2026-05-04 18:03 -6.84141 155.19020 -9 ft 0 kts 60°
2026-05-04 18:06 -6.84142 155.19020 -9 ft 0 kts 60°
2026-05-04 18:08 -6.84143 155.19020 -9 ft 0 kts 61°
2026-05-04 18:10 -6.84144 155.19020 -9 ft 0 kts 62°
2026-05-04 18:12 -6.84145 155.19020 -6 ft 0 kts 62°
2026-05-04 18:14 -6.84146 155.19020 -6 ft 0 kts 63°